Theta_e
361 359 350 345 344 342 341 339 335 329 332 342 336 350 343 343 347 346 347 341 339 338 338 337 338 338 338 339 340 340 341 341 341 341 340 338 339 340
354 362 357 343 347 344 342 340 338 334 329 338 339 344 346 341 346 346 345 346 342 339 338 336 336 337 337 337 337 338 339 339 339 338 336 336 335 335
362 362 359 361 343 343 343 342 340 338 332 335 339 350 352 348 346 346 346 349 342 338 338 336 336 335 335 336 336 337 337 335 334 332 332 333 333 333
360 360 356 349 358 357 345 356 346 350 338 350 346 343 350 354 352 354 346 340 342 337 340 337 335 334 334 333 334 333 333 330 328 327 327 328 329 330
363 361 357 356 358 347 347 346 343 345 346 339 338 341 343 345 347 352 351 350 343 337 334 335 332 331 331 330 329 327 324 324 323 323 323 324 325 327
365 364 361 358 356 357 353 352 352 346 345 341 338 337 339 348 342 338 343 343 341 340 338 334 338 334 331 328 327 326 321 320 318 319 320 321 322 323
366 366 364 358 348 351 349 351 350 347 339 338 338 337 336 341 338 339 338 344 345 342 340 339 340 337 335 330 333 330 326 323 321 319 318 317 317 319
365 367 366 351 347 337 338 338 347 353 347 339 339 339 352 347 341 338 340 339 331 346 339 338 347 335 336 337 332 333 327 323 321 319 318 317 317 317
367 367 364 358 352 356 336 335 334 334 340 352 347 347 354 354 353 350 347 340 337 338 344 335 342 333 334 329 328 326 322 320 319 318 318 316 315 314
367 367 368 364 360 358 356 348 348 348 347 345 351 351 354 356 352 351 350 348 343 340 345 330 335 332 331 330 329 325 321 319 318 317 315 314 311 309
366 367 368 367 348 335 357 354 350 349 335 331 332 332 332 335 338 345 337 336 331 333 340 332 330 327 326 326 329 324 321 316 314 314 314 313 310 309
363 366 340 360 337 327 354 355 350 346 348 344 340 334 335 337 330 345 341 332 336 329 340 330 328 324 319 325 325 326 323 315 312 311 311 311 309 315
358 359 363 331 325 319 333 356 351 351 342 346 342 343 342 344 340 340 343 336 331 330 334 333 327 323 321 319 322 324 322 320 321 319 310 307 307 311
358 358 360 324 320 316 325 331 322 335 348 345 341 340 340 339 342 340 341 342 342 340 334 336 326 321 320 318 315 319 319 321 321 320 321 315 309 308
360 343 322 315 316 318 320 320 323 347 346 341 339 337 339 339 340 342 345 347 344 340 334 340 329 332 322 317 314 313 311 315 319 319 319 319 320 321
339 350 337 328 327 337 326 329 342 344 341 338 338 339 340 337 335 337 335 334 330 329 339 339 337 332 319 317 314 311 313 311 317 318 318 318 318 319
344 338 335 336 332 329 333 335 338 338 336 338 338 335 335 334 333 335 334 332 327 324 324 328 334 333 324 325 312 314 314 314 315 317 318 314 315 315
337 334 333 331 330 330 330 333 336 336 337 337 339 335 332 332 330 333 332 329 327 327 324 324 325 321 319 323 320 314 314 313 315 317 317 311 308 313
339 336 335 334 331 330 331 332 334 334 339 340 335 333 331 333 330 327 328 329 326 326 324 323 320 315 309 307 315 315 312 312 313 313 312 310 308 310
338 335 334 333 331 332 333 334 335 335 336 338 333 333 333 331 326 329 328 328 326 324 321 320 317 314 310 310 310 312 306 316 312 310 309 310 311 309
330 329 330 331 333 335 333 333 336 335 335 336 335 335 332 329 328 329 328 317 319 321 318 316 317 313 318 315 308 311 315 305 311 313 311 306 305 306
329 330 337 332 333 333 333 334 336 335 334 335 334 332 333 332 329 328 324 321 320 319 316 315 319 316 314 310 309 312 311 314 310 308 307 306 305 300
332 332 336 334 332 334 335 334 334 333 334 334 331 332 332 330 329 326 323 321 318 315 313 312 312 313 312 311 310 309 315 312 310 309 310 308 309 307
Wind_Speed
9 8 8 6 5 5 5 4 5 5 5 7 4 6 2 7 8 8 8 14 14 12 10 9 9 9 9 9 10 10 10 9 8 8 8 8 8 9
9 10 8 9 6 6 6 5 5 5 6 5 5 5 5 4 9 5 6 10 11 11 11 10 8 8 8 9 10 8 7 8 7 6 6 6 6 8
10 9 11 9 8 7 7 6 6 6 6 6 3 6 5 4 4 5 7 6 7 15 12 9 7 8 10 10 8 7 7 6 4 6 7 8 8 8
13 12 11 10 10 8 7 7 7 6 7 5 6 4 7 8 6 6 6 8 5 11 9 9 10 10 7 6 6 7 6 5 5 7 7 8 8 8
14 14 13 12 11 11 10 8 9 7 6 8 8 7 5 7 8 6 6 8 6 15 12 11 11 9 8 9 8 7 8 7 5 6 7 7 9 9
16 15 15 14 13 13 10 11 8 8 9 8 8 8 6 6 6 7 5 7 7 4 6 9 10 14 13 12 13 12 9 6 6 7 7 7 9 10
16 15 15 15 16 14 11 11 11 10 9 9 9 8 8 4 6 6 6 3 4 3 5 5 6 8 10 13 13 12 8 5 6 7 7 8 9 9
16 15 16 17 17 18 16 12 13 11 11 9 8 9 7 5 6 6 4 2 5 2 3 6 2 8 5 4 11 9 9 7 8 7 6 8 9 10
18 16 16 15 17 16 15 16 13 12 13 10 9 8 4 5 6 4 5 6 6 6 4 7 4 7 6 8 14 14 11 5 1 5 7 9 9 10
19 20 17 17 17 19 17 18 18 15 13 12 9 6 7 6 2 4 4 4 6 7 7 7 5 7 6 5 11 9 8 7 8 8 9 11 11 11
19 19 19 19 19 22 19 19 17 17 12 12 6 6 2 7 5 6 7 6 8 5 8 8 7 4 6 6 2 12 12 12 11 11 12 12 13 11
20 21 23 24 21 24 21 17 17 17 16 12 10 7 8 8 13 9 6 8 6 8 2 6 6 4 7 6 4 5 7 12 12 15 15 14 14 8
16 17 17 25 18 24 26 20 20 14 15 12 10 9 10 12 9 8 8 9 7 7 2 4 4 5 6 7 7 6 6 5 6 6 13 16 9 10
17 15 15 19 22 19 20 14 9 12 11 11 11 9 9 9 9 9 11 10 8 3 5 1 3 5 7 7 9 7 6 5 6 7 7 7 10 13
17 7 8 18 26 23 19 18 17 11 8 8 8 7 8 6 6 6 9 8 6 5 5 6 5 4 6 7 9 8 7 7 6 7 8 7 7 8
16 10 7 9 16 15 14 15 12 10 10 9 9 7 7 7 9 9 8 8 8 8 9 9 7 7 5 7 7 7 7 8 7 7 7 8 8 7
11 4 4 5 7 9 8 11 13 11 11 11 13 11 12 10 7 9 9 8 9 9 8 10 9 8 6 7 7 7 7 7 7 6 8 9 8 8
10 10 12 11 13 15 15 16 15 17 11 11 12 10 9 9 8 8 8 9 9 9 8 6 11 10 9 12 14 7 6 6 7 7 8 9 9 8
8 11 12 12 12 15 15 15 15 14 14 13 9 8 7 10 11 8 8 8 9 8 8 6 6 6 8 8 0 9 3 6 7 8 7 8 10 9
9 11 13 13 12 14 14 14 13 11 12 13 11 10 9 10 9 10 9 10 10 8 8 6 6 7 7 7 5 5 14 6 6 7 9 8 8 10
3 1 1 2 5 11 11 15 13 11 12 12 11 11 11 11 11 11 11 9 9 9 8 7 5 3 2 2 6 8 4 13 5 5 7 9 10 9
1 2 3 3 2 3 4 5 10 11 13 11 12 12 11 10 11 13 11 10 8 8 7 6 8 5 5 7 8 6 5 3 12 14 15 8 5 8
3 3 4 5 5 6 9 9 10 10 10 11 9 9 9 10 9 9 11 9 10 8 9 9 7 7 7 7 6 6 9 6 5 6 7 12 9 8
Wind_Direction
202 212 240 244 212 225 224 251 275 284 222 151 229 168 232 190 188 209 234 183 198 200 207 219 230 234 244 250 254 263 271 273 277 278 285 292 295 292
223 191 217 238 220 223 233 230 244 270 290 142 186 167 176 233 147 208 239 151 185 197 202 218 228 243 247 253 257 264 269 272 276 285 291 296 299 303
222 211 200 239 250 212 224 236 235 238 251 259 189 137 155 237 198 198 210 221 216 195 200 201 205 230 236 240 250 260 262 258 271 297 297 296 296 296
211 220 211 210 231 257 240 221 230 231 249 246 273 172 200 186 234 233 264 270 283 159 170 190 206 220 232 256 256 250 252 253 284 297 299 302 305 306
212 210 211 211 212 223 221 229 215 233 221 252 259 221 231 194 200 233 242 241 258 154 182 189 204 218 217 223 229 235 236 237 247 265 278 287 288 284
211 212 208 211 215 209 225 219 249 225 213 236 241 253 225 211 210 247 215 229 245 240 192 224 199 211 218 219 221 225 225 242 255 264 259 257 266 274
213 212 214 210 206 210 209 216 210 220 236 217 232 249 246 202 185 212 227 229 192 247 259 287 251 214 225 224 235 221 191 222 251 266 274 282 279 272
219 211 220 201 203 197 204 230 208 210 220 234 235 238 249 241 236 245 251 247 279 267 269 269 258 263 278 241 145 142 162 191 213 234 257 265 272 277
217 216 212 215 200 205 206 215 229 226 225 217 245 266 304 251 250 232 260 292 289 285 201 262 270 293 315 124 153 165 166 165 250 259 260 261 256 259
218 218 216 216 201 202 200 209 219 220 218 221 221 234 246 268 273 240 257 275 253 253 250 265 278 286 308 315 163 158 153 188 219 231 246 244 246 253
224 217 217 213 209 186 200 205 209 215 202 203 211 83 104 159 208 228 220 213 248 258 202 242 266 287 290 290 293 165 197 208 218 233 239 240 241 239
225 226 206 212 201 185 197 200 208 204 198 189 187 169 175 189 168 195 232 237 258 275 165 219 261 301 289 295 296 225 235 219 227 234 241 246 248 261
226 224 224 206 193 182 195 203 208 188 188 190 191 204 208 211 193 174 203 241 247 242 148 222 256 272 279 296 297 301 300 314 303 288 240 246 247 226
225 225 229 185 186 186 191 211 144 167 182 187 178 177 202 202 207 183 195 221 248 271 133 118 271 278 286 294 295 303 303 311 300 292 300 301 210 226
231 239 320 184 177 179 178 140 153 179 182 191 182 207 200 194 192 167 180 195 220 247 208 196 241 272 278 288 289 294 306 302 311 310 305 314 329 325
229 242 288 208 199 173 160 157 169 176 166 186 197 192 198 209 186 178 177 180 208 210 213 200 202 217 255 270 278 289 298 298 300 306 334 319 307 314
215 189 195 158 154 156 166 186 172 167 163 179 194 196 206 212 160 172 174 183 207 222 204 192 197 221 229 252 260 261 274 286 302 330 323 312 300 313
187 195 205 187 186 181 187 177 192 177 179 188 210 191 180 194 160 182 181 201 208 215 228 213 172 212 225 214 220 250 285 310 316 318 301 314 316 329
203 207 213 205 199 179 181 188 187 172 184 184 194 185 171 187 169 183 184 199 224 228 224 221 226 241 258 267 19 228 315 307 303 302 327 322 315 326
209 207 209 202 201 198 188 184 187 178 170 179 164 169 170 189 181 186 188 203 217 220 220 210 219 234 247 273 317 314 202 248 296 321 317 312 302 286
316 93 79 277 260 269 197 168 153 179 170 169 165 187 188 183 175 191 205 206 188 213 218 221 214 89 217 338 262 253 163 215 233 283 305 307 315 324
89 346 205 202 201 147 184 165 167 166 178 172 182 186 181 181 186 192 199 177 191 216 209 220 147 188 211 230 261 277 272 291 227 231 240 255 310 317
292 253 219 154 169 165 186 173 171 163 163 178 167 163 176 193 192 190 196 201 177 196 224 210 212 199 225 238 253 276 261 279 322 313 336 189 195 189